Location: Franzen
(48.6167°N, 15.3833°E)
Time: 05:38:16
(UTC+00:00)

Altair - Pass Details

Date: 06 August 2021
Orbit: 1501 x 1682 km, 47.2° (Epoch: 21 September)

Event Time Altitude Azimuth Distance (km) Brightness Sun altitude
Exits shadow 21:36:26 23° 119° (ESE) 2,832 8.4 -22.1°
Drops below altitude 10° 21:41:52 10° 84° (E) 3,711 9.4 -22.4°
Sets 21:45:34 0° 71° (ENE) 4,675 10.0 -22.6°
